Location: Goll?ig?dem
(16.6773°N, 80.7332°E)
Time: 01:58:58
(UTC+00:00)

SL-4 R/B - Pass Details

Date: 21 April 2021
Orbit: 427 x 663 km, 51.6° (Epoch: 08 May)

Event Time Altitude Azimuth Distance (km) Brightness Sun altitude
Rises 13:20:21 0° 220° (SW) 2,558 5.8 -7.0°
Reaches altitude 10° 13:22:27 10° 222° (SW) 1,715 4.9 -7.4°
Maximum altitude 13:26:20 78° 307° (NW) 552 2.1 -8.3°
Drops below altitude 10° 13:30:35 10° 35° (NE) 1,866 4.5 -9.3°
Sets 13:32:57 0° 36° (NE) 2,808 5.4 -9.9°
